Flag for France Weather past 2 weeks in Marigot, Saint Martin, France

Now
79 °F

Scattered showers. Scattered clouds.


Feels Like: 81 °F
Forecast: 76 / 82 °F
Wind: 7 mph from Northeast

Location: Juliana Airport - Saint Maarten

Current Time: Dec 28, 2014 at 9:16:00 AM

Latest Report: Dec 28, 2014 at 9:00 AM


Visibility: N/A

Pressure: 30.07 "Hg

Humidity: 74%

Dew point: 70 °F

Location of MarigotLocation

Historic Weather in Marigot — Graph

°F

Marigot temperature yesterday

Maximum temperature yesterday: 82 °F (at 10:00 AM)
Minimum temperature yesterday: 75 °F (at 5:00 AM)
Average temperature yesterday: 78 °F

Past Weeks' High & Low Weather Summary

 TemperatureHumidityPressure
High86 °F (Dec 14, 12:00 PM)94% (Dec 16, 6:00 PM)30.09 "Hg (Dec 16, 6:00 PM)
Low73 °F (Dec 18, 4:00 AM)24% (Dec 25, 5:00 PM)29.86 "Hg (Dec 13, 3:00 PM)
Average79 °F72%30.00 "Hg
* Reported Dec 13 8:00 AM — Dec 28 8:00 AM, Marigot, Weather by CustomWeather, © 2014

Note: Actual official high and low records may vary slightly from our data, if they occured in-between our weather recording intervals... More about our weather records

Advertising

Marigot weather history for previous 24 hours

 ConditionsComfort  
Time TempWeatherWind HumidityBarometerVisibility
8:00 AM
Dec 28
77 °FScattered showers. Broken clouds.6 mph79%30.04 "HgN/A
7:00 AM73 °FPassing clouds.2 mph89%30.04 "HgN/A
6:00 AM73 °FPassing clouds.2 mph83%30.01 "HgN/A
5:00 AM75 °FPassing clouds.5 mph83%30.01 "HgN/A
4:00 AM73 °FPassing clouds.5 mph83%29.98 "HgN/A
2:00 AM73 °FPassing clouds.5 mph83%30.01 "HgN/A
12:00 AM75 °FPassing clouds.3 mph78%30.07 "HgN/A
11:00 PM
Dec 27
75 °FPassing clouds.6 mph78%30.07 "HgN/A
10:00 PM77 °FPassing clouds.5 mph69%30.09 "HgN/A
9:00 PM77 °FPassing clouds.5 mph69%30.09 "HgN/A
8:00 PM77 °FPassing clouds.6 mph69%30.09 "HgN/A
7:00 PM77 °FPassing clouds.7 mph69%30.07 "HgN/A
6:00 PM79 °FPassing clouds.7 mph61%30.07 "HgN/A
5:00 PM81 °FPassing clouds.8 mph58%30.04 "HgN/A
4:00 PM81 °FPassing clouds.12 mph58%30.04 "HgN/A
3:00 PM82 °FPassing clouds.12 mph58%30.04 "HgN/A
2:00 PM81 °FPassing clouds.12 mph62%30.04 "HgN/A
1:00 PM82 °FPassing clouds.13 mph51%30.04 "HgN/A
12:00 PM82 °FPassing clouds.16 mph51%30.07 "HgN/A
11:00 AM81 °FPassing clouds.14 mph58%30.09 "HgN/A
10:00 AM82 °FPassing clouds.10 mph51%30.09 "HgN/A
9:00 AM81 °FPassing clouds.12 mph58%30.09 "HgN/A
Weather by CustomWeather, © 2014

See weather overviewHow to use our weather pages